{"data":{"norad_id":39453,"epoch":"2026-09-20T03:31:31.466208Z","epoch_age_seconds":48843,"freshness":"FRESH","line1":"1 39453U 13067C   26263.14689197  .00008171  00000+0  14084-3 0  9991","line2":"2 39453  87.3358  19.5442 0002533 101.8140 258.3405 15.50853676720926","mean_motion":15.50853676,"eccentricity":0.0002533,"inclination_deg":87.3358,"raan_deg":19.5442,"arg_perigee_deg":101.814,"mean_anomaly_deg":258.3405,"bstar":0.00014084,"rev_number":72092,"period_min":92.852086710984,"perigee_km":412.51181989565,"apogee_km":415.95283419673,"semimajor_km":6792.3693270462,"source":"CELESTRAK","updated_at":"2026-09-20T09:00:47.147319Z"}}